[[{"header":{"parameterUnit":"m.s-1","parameterCategory":1,"la1":30.2991,"la2":30.254,"lo1":-89.0895,"lo2":-89.0444,"dy":0.0017,"dx":0.0017,"nx":28,"ny":28,"refTime":"2024-10-15T09:00:00:Z","depth":0,"parameterNumber":2,"parameterNumberName":"U-component_of_WINDS"},"data":[0,0,0,0,0,0,0,0,0,0,0,0,0,0,0,0,0,0,0,0,0,0,0,0,0,0,0,0,0,0,0,0,0,0,0,0,0,0,0,0,0,0,0,0,0,0,0,0,0,0,0,0,0,0,0,0,0,0,-4.1021,-4.1021,0,-4.1079,-4.108,-4.1081,-4.0968,-4.0964,-4.096,-4.0957,-4.1017,-4.1022,-4.1027,0,0,0,0,0,0,0,0,0,0,0,0,0,-4.081,-4.0814,-4.102,-4.1021,-4.1022,-4.1079,-4.108,-4.1081,-4.0968,-4.0964,-4.0959,-4.0955,-4.1015,-4.1021,-4.1027,0,0,0,0,0,0,0,0,0,0,0,0,0,-4.0888,-4.0816,-4.102,-4.0973,-4.0969,-4.1079,-4.108,-4.1081,-4.0969,-4.0964,-4.0958,-4.0953,-4.1013,-4.1021,-4.1028,-4.1187,0,0,-4.1052,-4.1055,0,0,0,0,0,0,0,0,-4.0884,-4.0896,-4.0979,-4.0976,-4.0972,-4.101,-4.1028,-4.1117,-4.0971,-4.0969,-4.0956,-4.095,-4.1019,-4.1026,-4.1049,-4.119,-4.1193,-4.1052,-4.1057,-4.106,-4.1062,0,0,0,0,0,0,0,-4.0879,-4.0893,-4.1044,-4.098,-4.0976,-4.0948,-4.0953,-4.1044,-4.1025,-4.0969,-4.0961,-4.0969,-4.1016,-4.1042,-4.105,-4.1194,-4.1052,-4.1059,-4.1063,-4.1066,-4.1467,-4.1473,0,0,0,0,0,0,-4.0879,-4.0889,-4.1042,-4.1045,-4.0913,-4.0956,-4.0962,-4.1004,-4.1024,-4.1021,-4.0974,-4.0964,-4.1032,-4.1041,-4.1052,-4.124,-4.106,-4.1067,-4.1072,-4.1461,-4.1469,-4.1475,0,0,0,0,0,0,-4.0875,-4.0894,-4.1039,-4.0965,-4.0981,-4.0966,-4.1014,-4.1008,-4.1034,-4.1027,-4.1023,-4.1004,-4.1028,-4.1041,-4.1154,-4.124,-4.1071,-4.1078,-4.1454,-4.1464,-4.1472,-4.1617,0,0,0,0,0,0,-4.087,-4.0893,-4.0954,-4.0967,-4.0986,-4.1142,-4.1019,-4.1013,-4.1047,-4.1034,-4.1055,-4.1053,-4.1025,-4.1144,-4.1162,-4.1248,-4.1084,-4.1447,-4.1458,-4.1469,-4.1605,-4.163,-4.1652,0,0,0,0,0,-4.0862,-4.0992,-4.0958,-4.0977,-4.1062,-4.1147,-4.1158,-4.1123,-4.1055,-4.1115,-4.1111,-4.1052,-4.1227,-4.1156,-4.1176,-4.1265,-4.1441,-4.1455,-4.1468,-4.1594,-4.1625,-4.1651,0,0,0,0,0,0,-4.099,-4.0993,-4.0955,-4.1093,-4.1121,-4.1128,-4.1204,-4.1157,-4.1204,-4.1191,-4.1145,-4.115,-4.1273,-4.128,-4.1201,-4.142,-4.1323,-4.1341,-4.1412,-4.1441,-4.1464,-4.1461,-4.109,0,0,0,0,0,-4.1034,-4.1103,-4.1102,-4.1225,-4.124,-4.122,-4.1256,-4.1226,-4.1253,-4.1264,-4.1268,-4.1297,-4.1358,-4.1399,-4.1455,-4.1604,-4.1607,-4.1675,-4.1699,-4.1718,-4.1735,-4.1814,-4.1845,-4.152,-4.152,-4.152,0,0,-4.1126,-4.1136,-4.1183,-4.125,-4.1268,-4.1341,-4.1231,-4.1312,-4.1366,-4.1277,-4.1385,-4.1388,-4.1416,-4.1549,-4.1607,-4.1558,-4.1825,-4.1735,-4.1751,-4.1757,-4.1832,-4.1862,-4.189,-4.153,-4.1528,-4.1526,0,0,-4.1332,-4.1346,-4.145,-4.147,-4.1498,-4.1483,-4.1508,-4.1523,-4.1522,-4.1629,-4.1563,-4.1626,-4.1732,-4.1755,-4.1781,-4.1993,-4.1941,-4.2013,-4.2137,-4.2215,-4.224,-4.2263,-4.2339,-4.2367,-4.2029,-4.2029,-4.203,0,-4.1443,-4.155,-4.1509,-4.1595,-4.1627,-4.1548,-4.1653,-4.1674,-4.172,-4.1743,-4.1687,-4.1819,-4.1832,-4.1969,-4.2021,-4.2044,-4.2071,-4.2011,-4.224,-4.2262,-4.2282,-4.2355,-4.2384,-4.2038,-4.2037,-4.2036,-4.2035,0,-4.1686,-4.1761,-4.1841,-4.1887,-4.1927,-4.2022,-4.1995,-4.204,-4.2007,-4.1998,-4.2108,-4.2121,-4.2178,-4.2208,-4.2176,-4.234,-4.2309,-4.2247,-4.2149,-4.2323,-4.239,-4.2418,-4.205,-4.2047,-4.2045,-4.2043,0,0,-4.1975,-4.1996,-4.2026,-4.2046,-4.2071,-4.2128,-4.2219,-4.2275,-4.2315,-4.2348,-4.2424,-4.2515,-4.2458,-4.2487,-4.2457,-4.2525,-4.2693,-4.2455,-4.2455,-4.25,-4.2875,-4.2923,-4.2956,-4.2658,-4.2663,-4.2667,-4.2873,0,-4.218,-4.2338,-4.2302,-4.2457,-4.2526,-4.2452,-4.2531,-4.2555,-4.2548,-4.2606,-4.2598,-4.2664,-4.2583,-4.26,-4.2664,-4.266,-4.2768,-4.2644,-4.2728,-4.2732,-4.2726,-4.2991,-4.3041,-4.3236,-4.2899,-4.2904,-4.2907,0,-4.2441,-4.2484,-4.2646,-4.2659,-4.2687,-4.2759,-4.2807,-4.2863,-4.2887,-4.2878,-4.291,-4.2866,-4.2955,-4.2855,-4.2978,-4.2894,-4.2925,-4.2928,-4.2935,-4.2943,-4.2832,-4.3008,-4.3297,-4.3327,-4.2948,-4.2945,-4.2942,0,-4.2638,-4.2736,-4.2846,-4.2865,-4.2882,-4.2935,-4.2944,-4.2964,-4.2999,-4.3041,-4.3063,-4.3115,-4.3144,-4.3184,-4.3155,-4.3084,-4.3283,-4.318,-4.3278,-4.3279,-4.3325,-4.3323,-4.3625,-4.3343,-4.3343,-4.3342,-4.3342,0,-4.2871,-4.2974,-4.2934,-4.3002,-4.3114,-4.3072,-4.3184,-4.3185,-4.3202,-4.3269,-4.3206,-4.327,-4.3227,-4.3286,-4.3264,-4.3369,-4.3382,-4.3377,-4.337,-4.3384,-4.3385,-4.3406,-4.3392,-4.335,-4.3348,-4.3347,-4.3345,0,-4.3111,-4.3089,-4.3203,-4.321,-4.3214,-4.3297,-4.3303,-4.3365,-4.3353,-4.3438,-4.3455,-4.3437,-4.3504,-4.3478,-4.3549,-4.3534,-4.3669,-4.3644,-4.3662,-4.3656,-4.3756,-4.3748,-4.4084,-4.4126,-4.3815,-4.3818,-4.3821,0,-4.3262,-4.3339,-4.3354,-4.3394,-4.3409,-4.3474,-4.351,-4.347,-4.351,-4.3543,-4.3602,-4.3663,-4.3711,-4.3821,-4.3814,-4.3868,-4.3844,-4.3958,-4.3852,-4.3863,-4.3847,-4.3844,-4.3852,-4.398,-4.3984,-4.3987,-4.3989,0,-4.3534,-4.3519,-4.3573,-4.3624,-4.3669,-4.3706,-4.3739,-4.3775,-4.3737,-4.3785,-4.3852,-4.3889,-4.3961,-4.4023,-4.4071,-4.408,-4.4029,-4.4022,-4.4048,-4.4064,-4.4071,-4.407,-4.3721,-4.4015,-4.4013,-4.4011,-4.4009,-4.4008,-4.3735,-4.38,-4.3821,-4.3883,-4.3903,-4.3935,-4.3994,-4.3989,-4.4045,-4.4101,-4.4074,-4.4152,-4.4174,-4.4233,-4.4249,-4.4309,-4.4265,-4.4302,-4.4312,-4.4322,-4.4336,-4.406,-4.4318,-4.4317,-4.4316,-4.4316,-4.4315,0,-4.4005,-4.4014,-4.4072,-4.4119,-4.4168,-4.4114,-4.4147,-4.4192,-4.4262,-4.4286,-4.4333,-4.4411,-4.447,-4.4467,-4.4522,-4.4571,-4.4549,-4.4587,-4.4584,-4.4587,-4.4372,-4.4345,-4.4604,-4.4604,-4.4604,-4.4604,-4.4604,-4.4604,-4.4151,-4.4259,-4.4246,-4.4362,-4.437,-4.4447,-4.447,-4.4499,-4.4518,-4.4607,-4.4656,-4.4653,-4.4667,-4.4722,-4.4773,-4.4771,-4.4794,-4.4842,-4.4831,-4.4631,-4.4602,-4.4575,-4.4549,-4.4847,-4.4847,-4.504,-4.5042,-4.5044]},{"header":{"parameterUnit":"m.s-1","parameterCategory":1,"la1":30.2991,"la2":30.254,"lo1":-89.0895,"lo2":-89.0444,"dy":0.0017,"dx":0.0017,"nx":28,"ny":28,"refTime":"2024-10-15T09:00:00:Z","depth":0,"parameterNumber":3,"parameterNumberName":"V-component_of_WINDS"},"data":[0,0,0,0,0,0,0,0,0,0,0,0,0,0,0,0,0,0,0,0,0,0,0,0,0,0,0,0,0,0,0,0,0,0,0,0,0,0,0,0,0,0,0,0,0,0,0,0,0,0,0,0,0,0,0,0,0,0,-8.8895,-8.8896,0,-8.8989,-8.899,-8.8991,-8.8872,-8.8868,-8.8864,-8.886,-8.8949,-8.8955,-8.8961,0,0,0,0,0,0,0,0,0,0,0,0,0,-8.8605,-8.8611,-8.8895,-8.8896,-8.8898,-8.8989,-8.899,-8.8991,-8.8873,-8.8868,-8.8863,-8.8858,-8.8947,-8.8954,-8.8962,0,0,0,0,0,0,0,0,0,0,0,0,0,-8.8718,-8.8613,-8.8895,-8.885,-8.8847,-8.8989,-8.899,-8.8992,-8.8874,-8.8868,-8.8861,-8.8855,-8.8944,-8.8954,-8.8963,-8.9152,0,0,-8.8992,-8.8996,0,0,0,0,0,0,0,0,-8.8712,-8.8729,-8.8855,-8.8853,-8.885,-8.8913,-8.8921,-8.9045,-8.8876,-8.8864,-8.886,-8.8852,-8.8942,-8.8951,-8.8983,-8.9156,-8.916,-8.8993,-8.8999,-8.9003,-8.9006,0,0,0,0,0,0,0,-8.8704,-8.8724,-8.8932,-8.8857,-8.8854,-8.8822,-8.8831,-8.8944,-8.8937,-8.8864,-8.8856,-8.8869,-8.8939,-8.8974,-8.8984,-8.9161,-8.8993,-8.9001,-8.9007,-8.9011,-8.9492,-8.9499,0,0,0,0,0,0,-8.8703,-8.8719,-8.8929,-8.8935,-8.8764,-8.8833,-8.8842,-8.8899,-8.8936,-8.8936,-8.8874,-8.8863,-8.896,-8.8973,-8.8986,-8.9209,-8.9003,-8.9012,-8.9018,-8.9485,-8.9494,-8.9501,0,0,0,0,0,0,-8.8697,-8.8723,-8.8925,-8.8825,-8.8848,-8.8844,-8.8909,-8.8904,-8.8939,-8.8944,-8.8941,-8.8912,-8.8956,-8.8973,-8.9112,-8.921,-8.9016,-8.9025,-8.9477,-8.9488,-8.9497,-8.9656,0,0,0,0,0,0,-8.8689,-8.8722,-8.8795,-8.8827,-8.8854,-8.9052,-8.8915,-8.8911,-8.8957,-8.8943,-8.8978,-8.8978,-8.8952,-8.9098,-8.9121,-8.922,-8.9033,-8.9468,-8.9482,-8.9494,-8.9642,-8.9671,-8.9695,0,0,0,0,0,-8.8679,-8.8835,-8.88,-8.8826,-8.8946,-8.9058,-8.9073,-8.9042,-8.8965,-8.9038,-8.9041,-8.8977,-8.9196,-8.9113,-8.9138,-8.9241,-8.9462,-8.9478,-8.9493,-8.963,-8.9665,-8.9695,0,0,0,0,0,0,-8.8812,-8.8838,-8.8799,-8.8971,-8.9013,-8.9038,-8.9128,-8.908,-8.9144,-8.9128,-8.9085,-8.9094,-8.9242,-8.9255,-8.9163,-8.9425,-8.9316,-8.9337,-8.9411,-8.9444,-8.9471,-8.9464,-8.9041,0,0,0,0,0,-8.8862,-8.8953,-8.897,-8.9119,-8.9142,-8.9132,-8.918,-8.9153,-8.9194,-8.9211,-8.9223,-8.9264,-8.9342,-8.9394,-8.9466,-8.9643,-8.9648,-8.9726,-8.9753,-8.9775,-8.9794,-8.9887,-8.9921,-8.9553,-8.9553,-8.9553,0,0,-8.8964,-8.899,-8.9049,-8.9146,-8.9176,-8.9268,-8.9148,-8.9251,-8.9319,-8.9225,-8.9358,-8.9369,-8.9411,-8.957,-8.964,-8.9585,-8.9897,-8.9795,-8.9813,-8.9819,-8.9907,-8.9942,-8.9973,-8.9564,-8.9562,-8.956,0,0,-8.9198,-8.9228,-8.9355,-8.9388,-8.9435,-8.9427,-8.9458,-8.949,-8.9495,-8.9627,-8.9559,-8.9637,-8.9772,-8.9805,-8.9839,-9.0085,-9.0028,-9.011,-9.0249,-9.034,-9.0369,-9.0394,-9.0481,-9.0512,-9.0129,-9.0129,-9.0129,0,-8.9319,-8.9459,-8.9425,-8.9534,-8.9577,-8.95,-8.9626,-8.9659,-8.9727,-8.9757,-8.9695,-8.9863,-8.9886,-9.0051,-9.0111,-9.0142,-9.0173,-9.0105,-9.0368,-9.0393,-9.0416,-9.0498,-9.0531,-9.0138,-9.0137,-9.0136,-9.0136,0,-8.9604,-8.9701,-8.9798,-8.9868,-8.9922,-9.0039,-9.0021,-9.0079,-9.0047,-9.0045,-9.018,-9.0205,-9.028,-9.0317,-9.0286,-9.0477,-9.0442,-9.0375,-9.0264,-9.0462,-9.0537,-9.0569,-9.0152,-9.0149,-9.0146,-9.0144,0,0,-8.9924,-8.9974,-9.001,-9.004,-9.0087,-9.016,-9.0273,-9.0348,-9.0399,-9.0448,-9.0539,-9.0655,-9.0594,-9.0633,-9.0605,-9.0685,-9.0877,-9.0608,-9.0608,-9.0656,-9.1086,-9.1136,-9.1173,-9.0839,-9.0845,-9.085,-9.1082,0,-9.0157,-9.0355,-9.0328,-9.0516,-9.0605,-9.0532,-9.0629,-9.0667,-9.0668,-9.074,-9.074,-9.0823,-9.0736,-9.0759,-9.0835,-9.0837,-9.0962,-9.082,-9.0921,-9.0925,-9.0912,-9.1213,-9.1265,-9.1484,-9.1112,-9.1117,-9.1121,0,-9.0456,-9.0518,-9.0717,-9.0749,-9.0784,-9.0873,-9.094,-9.1011,-9.1051,-9.1046,-9.109,-9.1047,-9.1157,-9.1045,-9.1194,-9.1098,-9.1137,-9.1144,-9.1152,-9.1159,-9.1035,-9.1227,-9.1553,-9.1585,-9.1167,-9.1164,-9.116,0,-9.0668,-9.0801,-9.0936,-9.0965,-9.1006,-9.107,-9.1089,-9.1123,-9.117,-9.1227,-9.1257,-9.1326,-9.1363,-9.1416,-9.1392,-9.1313,-9.1545,-9.1431,-9.1541,-9.1542,-9.1592,-9.1589,-9.1928,-9.162,-9.162,-9.1619,-9.1619,0,-9.093,-9.1054,-9.1032,-9.1116,-9.1251,-9.1218,-9.1352,-9.1362,-9.1393,-9.1475,-9.1415,-9.1493,-9.1457,-9.1531,-9.1512,-9.1637,-9.1655,-9.1652,-9.1645,-9.1657,-9.1657,-9.1681,-9.1665,-9.1628,-9.1626,-9.1624,-9.1623,0,-9.119,-9.118,-9.1323,-9.1351,-9.1361,-9.1459,-9.1482,-9.1558,-9.1555,-9.1659,-9.1681,-9.1675,-9.1759,-9.174,-9.1832,-9.1819,-9.1976,-9.1951,-9.1964,-9.1957,-9.2068,-9.2058,-9.2434,-9.248,-9.2144,-9.2147,-9.215,0,-9.1358,-9.1451,-9.149,-9.1542,-9.1567,-9.1651,-9.1699,-9.1669,-9.1721,-9.1774,-9.1844,-9.1923,-9.1985,-9.2123,-9.2124,-9.2194,-9.2169,-9.2296,-9.2179,-9.2187,-9.2169,-9.2163,-9.2172,-9.2319,-9.2323,-9.2326,-9.2328,0,-9.1656,-9.1647,-9.172,-9.1792,-9.1852,-9.1906,-9.1954,-9.1999,-9.1973,-9.2034,-9.2121,-9.2169,-9.2263,-9.2342,-9.2406,-9.2423,-9.2371,-9.2365,-9.2394,-9.2406,-9.2409,-9.2408,-9.2026,-9.2357,-9.2354,-9.2352,-9.235,-9.2349,-9.1874,-9.1953,-9.1993,-9.2076,-9.211,-9.2156,-9.2229,-9.2236,-9.2308,-9.2385,-9.2362,-9.246,-9.2496,-9.2577,-9.2602,-9.2676,-9.2628,-9.267,-9.268,-9.2691,-9.2704,-9.2399,-9.2687,-9.2687,-9.2686,-9.2685,-9.2685,0,-9.2168,-9.219,-9.2267,-9.2338,-9.2402,-9.2351,-9.2401,-9.2457,-9.2546,-9.2585,-9.2647,-9.2746,-9.2822,-9.283,-9.2901,-9.2959,-9.2937,-9.2978,-9.2973,-9.2978,-9.2744,-9.2711,-9.2995,-9.2995,-9.2995,-9.2995,-9.2995,-9.2995,-9.2329,-9.246,-9.2456,-9.2602,-9.2622,-9.272,-9.2753,-9.2795,-9.2826,-9.294,-9.3004,-9.3009,-9.3035,-9.3107,-9.3174,-9.3174,-9.3202,-9.3253,-9.3244,-9.3025,-9.2994,-9.2965,-9.2934,-9.326,-9.326,-9.3471,-9.3473,-9.3474]}]]